Location: Willingham
(52.3167°N, 0.0667°E)
Time: 06:53:35
(UTC+00:00)

Meteor 2-8 Rocket - Pass Details

Date: 19 May 2025
Orbit: 937 x 957 km, 82.5° (Epoch: 18 June)

Event Time Altitude Azimuth Distance (km) Brightness Sun altitude
Rises 23:12:34 0° 349° (N) 3,650 9.3 -17.1°
Reaches altitude 10° 23:15:05 10° 350° (N) 2,701 8.2 -17.1°
Maximum altitude 23:21:18 81° 78° (ENE) 976 4.5 -17.3°
Enters shadow 23:24:50 27° 164° (SSE) 1,738 5.2 -17.4°
